Weather reports worldwide

Advertisment
Groningen Eelde, Netherlands (6280): temperature & dewpoint: 09.08.2020 21:00:00 - 15.08.2020 21:00:00 (CEST)Groningen Eelde, Netherlands (6280): temperature 5cm: 09.08.2020 21:00:00 - 15.08.2020 21:00:00 (CEST)Groningen Eelde, Netherlands (6280): wind speed & gusts: 09.08.2020 21:00:00 - 15.08.2020 21:00:00 (CEST)Groningen Eelde, Netherlands (6280): wind direction: 09.08.2020 21:00:00 - 15.08.2020 21:00:00 (CEST)Groningen Eelde, Netherlands (6280): reduced air pressure: 09.08.2020 21:00:00 - 15.08.2020 21:00:00 (CEST)Groningen Eelde, Netherlands (6280): visibility: 09.08.2020 21:00:00 - 15.08.2020 21:00:00 (CEST)Groningen Eelde, Netherlands (6280): precipitation: 09.08.2020 21:00:00 - 15.08.2020 21:00:00 (CEST)
Date & Time tt [°C] td [°C] tt 5cm [°C] ff [km/h] ff [kn] fx [km/h] fx [kn] dd ppp [hPa] vv [km] rr [mm]
15.08.2020 21:00:00 21,5 16,8 20,0 11 6 18 10 NNE 1014,7 10 0,0
15.08.2020 20:00:00 23,3 17,8 22,5 9 5 18 10 N 1014,6 10 0,0
15.08.2020 19:00:00 25,0 18,9 25,8 11 6 18 10 NNE 1014,2 10 0,0
15.08.2020 18:00:00 25,5 18,1 27,2 8 4 14 8 N 1014,5 10 0,0
15.08.2020 17:00:00 25,4 19,7 28,4 5 3 11 6 NNE 1014,4 10 0,0
15.08.2020 16:00:00 24,6 20,0 26,3 2 1 7 4 - 1015,0 10 0,0
15.08.2020 15:00:00 23,5 20,3 24,6 5 3 11 6 S 1015,2 9 0,0
15.08.2020 14:00:00 24,0 19,5 25,2 9 5 18 10 ENE 1015,5 10 0,0
15.08.2020 13:00:00 23,8 18,7 25,4 8 4 14 8 ENE 1015,4 10 0,0
15.08.2020 12:00:00 23,4 19,1 24,9 5 3 11 6 E 1015,3 10 0,0
15.08.2020 11:00:00 22,4 19,1 23,9 5 3 11 6 ENE 1015,2 10 0,0
15.08.2020 10:00:00 21,5 18,9 21,2 5 3 11 6 NE 1015,0 9 0,0
15.08.2020 09:00:00 20,2 19,1 20,3 2 1 4 2 SW 1014,8 4,4 0,0
15.08.2020 08:00:00 19,5 18,8 19,5 2 1 4 2 - 1014,4 5 0,0
15.08.2020 07:00:00 17,2 17,1 15,7 5 3 11 6 SSW 1013,9 2,5 0,0
15.08.2020 06:00:00 17,5 17,3 15,3 2 1 7 4 NE 1013,7 4,2 0,0
15.08.2020 05:00:00 18,8 18,2 17,1 5 3 11 6 ENE 1013,5 6 0,0
15.08.2020 04:00:00 18,1 17,8 15,5 4 2 7 4 NW 1013,8 2,3 0,0
15.08.2020 03:00:00 17,4 17,0 16,3 2 1 4 2 SW 1014,0 1,8 0,0
15.08.2020 02:00:00 18,5 18,1 17,0 0 0 4 2 N 1014,1 3,8 0,0
15.08.2020 01:00:00 18,8 18,3 18,0 4 2 11 6 SW 1014,4 4,2 0,0
15.08.2020 00:00:00 19,1 18,3 17,9 2 1 7 4 NNW 1014,2 7 0,0
14.08.2020 23:00:00 20,0 18,8 18,3 5 3 11 6 NNE 1013,8 7 0,0
14.08.2020 22:00:00 20,8 18,9 19,2 4 2 14 8 NE 1013,6 10 0,0
14.08.2020 21:00:00 21,7 19,2 20,8 11 6 14 8 NNE 1013,2 10 0,0
14.08.2020 20:00:00 23,1 20,0 22,5 8 4 11 6 ENE 1012,9 10 0,0
14.08.2020 19:00:00 24,0 20,6 23,6 8 4 14 8 NE 1012,8 10 0,0
14.08.2020 18:00:00 24,9 19,6 24,5 8 4 14 8 E 1012,5 10 0,0
14.08.2020 17:00:00 25,3 19,1 26,2 9 5 14 8 E 1012,3 10 0,0
14.08.2020 16:00:00 25,1 19,6 25,5 8 4 14 8 E 1012,4 10 0,0
14.08.2020 15:00:00 25,3 19,1 28,4 8 4 18 10 NE 1012,6 10 0,0
14.08.2020 14:00:00 24,9 18,9 28,3 8 4 14 8 E 1013,1 10 0,0
14.08.2020 13:00:00 23,6 19,6 27,0 8 4 14 8 ENE 1013,2 10 0,0
14.08.2020 12:00:00 22,1 19,2 23,6 5 3 11 6 ENE 1013,1 10 0,0
14.08.2020 11:00:00 21,0 19,4 21,6 9 5 14 8 ENE 1012,9 10 0,0
14.08.2020 10:00:00 20,3 18,6 20,2 4 2 11 6 N 1012,8 10 0,0
14.08.2020 09:00:00 20,0 19,1 19,7 5 3 11 6 W 1012,5 8 0,4
14.08.2020 08:00:00 19,6 18,4 19,0 8 4 22 12 ESE 1012,7 10 0,5
14.08.2020 07:00:00 19,3 18,6 18,6 2 1 7 4 SSW 1012,3 10 0,7
14.08.2020 06:00:00 19,3 18,3 18,9 2 1 11 6 NNE 1011,9 10 0,0
14.08.2020 05:00:00 19,5 18,0 19,2 8 4 14 8 E 1011,7 10 0,9
14.08.2020 04:00:00 21,5 16,3 19,6 4 2 7 4 ENE 1011,8 10 0,0
14.08.2020 03:00:00 21,8 16,9 20,3 8 4 11 6 NE 1011,8 10 0,0
14.08.2020 02:00:00 22,3 17,4 20,4 9 5 11 6 NE 1012,0 10 0,0
14.08.2020 01:00:00 22,2 18,3 20,0 2 1 7 4 ESE 1011,9 10 0,0
14.08.2020 00:00:00 23,2 18,2 21,0 4 2 18 10 - 1012,3 10 0,0
13.08.2020 23:00:00 23,4 17,6 21,0 9 5 11 6 ENE 1011,8 10 0,0
13.08.2020 22:00:00 24,7 17,5 22,4 8 4 18 10 E 1011,6 10 0,0
13.08.2020 21:00:00 26,5 16,6 24,7 15 8 22 12 ENE 1011,4 10 0,0
13.08.2020 20:00:00 27,9 16,3 26,5 16 9 29 16 NE 1011,2 10 0,0
13.08.2020 19:00:00 30,0 16,5 29,5 16 9 25 14 ENE 1010,9 10 0,0
13.08.2020 18:00:00 30,2 16,8 30,0 16 9 25 14 ENE 1011,0 10 0,0
13.08.2020 17:00:00 31,6 16,6 32,6 16 9 25 14 ENE 1011,3 10 0,0
13.08.2020 16:00:00 31,4 16,0 33,5 15 8 22 12 E 1011,7 10 0,0
13.08.2020 15:00:00 30,8 16,0 32,5 16 9 29 16 ENE 1012,0 10 0,0
13.08.2020 14:00:00 30,8 15,6 33,0 16 9 25 14 ENE 1012,2 10 0,0
13.08.2020 13:00:00 29,9 16,5 33,0 15 8 32 18 ENE 1012,3 10 0,0
13.08.2020 12:00:00 28,9 17,1 31,0 13 7 22 12 ENE 1012,6 10 0,0
13.08.2020 11:00:00 26,2 15,4 28,5 13 7 18 10 E 1013,1 10 0,0
13.08.2020 10:00:00 25,0 15,0 26,3 11 6 18 10 E 1013,1 10 0,0
13.08.2020 09:00:00 22,8 13,6 22,5 13 7 18 10 E 1013,1 10 0,0
13.08.2020 08:00:00 21,0 13,9 19,8 9 5 14 8 E 1013,1 10 0,0
13.08.2020 07:00:00 20,3 13,8 18,6 9 5 14 8 E 1012,9 10 0,0
13.08.2020 06:00:00 19,7 14,1 17,6 11 6 14 8 E 1012,8 10 0,0
13.08.2020 05:00:00 19,9 14,3 17,1 11 6 14 8 E 1012,8 10 0,0
13.08.2020 04:00:00 20,1 14,8 16,4 11 6 14 8 ENE 1012,7 10 0,0
13.08.2020 03:00:00 19,8 15,1 16,6 8 4 14 8 E 1013,2 10 0,0
13.08.2020 02:00:00 20,0 15,6 16,8 9 5 11 6 ENE 1013,7 10 0,0
13.08.2020 01:00:00 22,2 15,5 19,0 8 4 14 8 E 1014,1 10 0,0
13.08.2020 00:00:00 24,1 15,5 21,6 9 5 18 10 E 1014,1 10 0,0
12.08.2020 23:00:00 25,4 15,5 20,8 8 4 14 8 E 1014,0 10 0,0
12.08.2020 22:00:00 25,4 16,3 22,2 9 5 18 10 ENE 1013,9 10 0,0
12.08.2020 21:00:00 27,3 16,4 23,8 9 5 14 8 ENE 1013,3 10 0,0
12.08.2020 20:00:00 29,6 16,8 27,1 11 6 18 10 E 1013,1 10 0,0
12.08.2020 19:00:00 31,3 16,4 30,3 11 6 22 12 E 1013,5 10 0,0
12.08.2020 18:00:00 32,6 15,9 32,8 13 7 22 12 E 1013,7 10 0,0
12.08.2020 17:00:00 32,5 15,8 33,8 15 8 29 16 E 1014,2 10 0,0
12.08.2020 16:00:00 32,4 16,1 34,1 18 10 29 16 E 1014,5 10 0,0
12.08.2020 15:00:00 32,6 16,6 34,6 15 8 25 14 SE 1014,9 10 0,0
12.08.2020 14:00:00 31,4 15,7 33,9 16 9 32 18 ESE 1015,4 10 0,0
12.08.2020 13:00:00 30,9 17,2 32,7 18 10 29 16 ESE 1015,6 5 0,0
12.08.2020 12:00:00 29,1 17,6 31,4 15 8 25 14 E 1015,9 10 0,0
12.08.2020 11:00:00 27,2 17,3 29,1 13 7 22 12 E 1016,1 10 0,0
12.08.2020 10:00:00 25,3 16,5 25,9 15 8 22 12 E 1016,1 10 0,0
12.08.2020 09:00:00 23,5 15,8 23,1 15 8 22 12 E 1016,2 10 0,0
12.08.2020 08:00:00 22,0 15,1 20,5 13 7 22 12 E 1016,1 10 0,0
12.08.2020 07:00:00 21,0 14,8 18,9 11 6 22 12 E 1016,4 10 0,0
12.08.2020 06:00:00 21,3 14,7 19,3 13 7 18 10 E 1016,0 10 0,0
12.08.2020 05:00:00 21,7 14,9 19,9 11 6 18 10 E 1015,9 10 0,0
12.08.2020 04:00:00 22,8 14,8 20,6 9 5 18 10 ESE 1016,3 10 0,0
12.08.2020 03:00:00 23,5 14,8 21,2 11 6 22 12 E 1016,4 10 0,0
12.08.2020 02:00:00 23,8 14,7 21,3 13 7 18 10 E 1016,5 10 0,0
12.08.2020 01:00:00 24,2 15,1 21,6 11 6 18 10 E 1016,7 10 0,0
12.08.2020 00:00:00 24,7 16,1 22,0 9 5 18 10 E 1016,6 10 0,0
11.08.2020 23:00:00 25,7 16,0 22,9 11 6 18 10 E 1016,5 10 0,0
11.08.2020 22:00:00 26,2 16,6 21,9 9 5 18 10 ENE 1016,2 10 0,0
11.08.2020 21:00:00 28,2 16,2 25,1 11 6 14 8 E 1015,5 10 0,0
11.08.2020 20:00:00 29,5 17,2 27,0 11 6 25 14 E 1015,4 10 0,0
11.08.2020 19:00:00 31,4 16,6 30,1 15 8 29 16 E 1015,2 10 0,0
11.08.2020 18:00:00 31,8 17,2 30,9 18 10 32 18 E 1015,4 10 0,0
11.08.2020 17:00:00 32,1 17,4 31,6 11 6 36 19 ESE 1015,8 10 0,0
11.08.2020 16:00:00 32,5 16,7 33,4 22 12 36 19 E 1015,9 10 0,0
11.08.2020 15:00:00 32,8 17,7 33,9 18 10 40 21 ESE 1016,3 10 0,0
11.08.2020 14:00:00 31,2 16,3 32,7 22 12 36 19 ESE 1016,7 10 0,0
11.08.2020 13:00:00 30,3 17,8 32,0 21 11 36 19 E 1016,9 10 0,0
11.08.2020 12:00:00 29,5 18,3 30,6 21 11 32 18 E 1017,1 10 0,0
11.08.2020 11:00:00 27,8 18,1 28,5 18 10 29 16 E 1017,3 10 0,0
11.08.2020 10:00:00 25,6 17,6 26,0 16 9 29 16 E 1017,4 10 0,0
11.08.2020 09:00:00 23,3 17,4 22,9 11 6 18 10 ENE 1017,4 10 0,0
11.08.2020 08:00:00 21,1 17,4 19,6 11 6 18 10 ENE 1017,2 10 0,0
11.08.2020 07:00:00 19,0 16,6 16,5 9 5 14 8 ENE 1017,1 10 0,0
11.08.2020 06:00:00 18,3 16,4 16,4 13 7 14 8 ENE 1017,1 10 0,0
11.08.2020 05:00:00 19,0 16,6 16,4 8 4 14 8 ENE 1017,0 10 0,0
11.08.2020 04:00:00 20,2 16,9 17,9 9 5 18 10 ENE 1017,1 10 0,0
11.08.2020 03:00:00 20,1 16,9 17,9 9 5 14 8 ENE 1017,3 10 0,0
11.08.2020 02:00:00 21,8 17,1 18,1 9 5 18 10 E 1017,1 10 0,0
11.08.2020 01:00:00 20,1 17,1 17,2 8 4 11 6 NE 1017,1 10 0,0
11.08.2020 00:00:00 21,6 16,8 17,6 9 5 14 8 ENE 1017,1 10 0,0
10.08.2020 23:00:00 22,3 16,7 18,5 9 5 11 6 ENE 1016,8 10 0,0
10.08.2020 22:00:00 24,8 18,0 22,0 9 5 22 12 E 1016,3 10 0,0
10.08.2020 21:00:00 26,5 18,8 24,5 16 9 29 16 NE 1015,7 10 0,0
10.08.2020 20:00:00 28,7 18,4 26,9 13 7 22 12 NE 1015,3 10 0,0
10.08.2020 19:00:00 30,5 17,7 29,3 13 7 22 12 ENE 1015,3 10 0,0
10.08.2020 18:00:00 31,6 15,8 30,9 16 9 25 14 ENE 1015,3 10 0,0
10.08.2020 17:00:00 31,8 17,6 32,4 13 7 29 16 ENE 1015,5 10 0,0
10.08.2020 16:00:00 31,6 17,4 32,9 16 9 25 14 ENE 1015,9 10 0,0
10.08.2020 15:00:00 31,5 17,5 33,4 15 8 25 14 ENE 1016,2 10 0,0
10.08.2020 14:00:00 30,8 17,7 33,2 13 7 22 12 ENE 1016,4 10 0,0
10.08.2020 13:00:00 29,5 19,0 32,0 15 8 22 12 E 1016,6 10 0,0
10.08.2020 12:00:00 27,8 18,7 30,2 9 5 18 10 E 1016,7 10 0,0
10.08.2020 11:00:00 26,0 18,9 28,0 9 5 14 8 E 1016,9 10 0,0
10.08.2020 10:00:00 24,1 18,0 25,0 9 5 14 8 E 1016,9 10 0,0
10.08.2020 09:00:00 21,9 17,6 21,7 11 6 22 12 E 1017,0 10 0,0
10.08.2020 08:00:00 20,6 17,9 19,2 9 5 14 8 ENE 1017,0 10 0,0
10.08.2020 07:00:00 18,2 16,9 16,3 9 5 14 8 ENE 1016,9 9 0,0
10.08.2020 06:00:00 16,9 16,0 14,1 5 3 11 6 NE 1016,8 10 0,0
10.08.2020 05:00:00 17,3 16,2 14,7 8 4 11 6 NE 1017,1 10 0,0
10.08.2020 04:00:00 17,9 16,7 14,5 5 3 11 6 ENE 1017,3 10 0,0
10.08.2020 03:00:00 17,9 16,6 15,0 5 3 7 4 ENE 1017,1 10 0,0
10.08.2020 02:00:00 18,3 16,6 15,7 5 3 11 6 ENE 1017,3 10 0,0
10.08.2020 01:00:00 19,4 16,8 17,0 9 5 14 8 NE 1017,6 10 0,0
10.08.2020 00:00:00 20,3 16,9 18,2 11 6 14 8 NNE 1017,6 10 0,0
09.08.2020 23:00:00 20,8 17,2 18,6 11 6 18 10 NE 1018,0 10 0,0
09.08.2020 22:00:00 21,5 17,9 19,7 11 6 22 12 NE 1018,0 10 0,0
09.08.2020 21:00:00 23,1 18,7 21,7 16 9 29 16 NNE 1017,6 10 0,0

tt = temperature
td = dewpoint
tt 5cm = temperature 5cm
ff = wind speed
fx = gusts
dd = wind direction
ppp = reduced air pressure
vv = visibility
rr = precipitation

Next stations